Location: Marsån
(66.4167°N, 22.2833°E)
Time: 11:45:37
(UTC+00:00)

Cosmos 2082 Rocket - Pass Details

Date: 24 February 2024
Orbit: 831 x 855 km, 71.0° (Epoch: 15 April)

Event Time Altitude Azimuth Distance (km) Brightness Sun altitude
Rises 23:41:02 0° 297° (WNW) 3,407 5.5 -32.1°
Reaches altitude 10° 23:43:30 10° 300° (WNW) 2,474 4.7 -32.0°
Enters shadow 23:45:58 27° 307° (NW) 1,595 3.7 -32.0°
Exits shadow 23:56:05 - 109° (ESE) 2,936 5.0 -31.6°
Sets 23:57:21 0° 110° (ESE) 3,422 5.4 -31.6°
